Regional Weather Roundup
Issued by NWS Little Rock, AR

Home | Current Version | Previous Version | Text Only | Print | Product List | Glossary On
Versions: 1 2 3 4 5 6 7 8 9 10 11 12 13 14 15 16 17 18 19 20 21 22 23 24 25 26 27 28 29 30 31
000
ASUS44 KLZK 281605
RWRLZK

WEATHER ROUNDUP FOR ARKANSAS
NATIONAL WEATHER SERVICE LITTLE ROCK AR
1100 AM CDT WED JUN 28 2017

NOTE: "FAIR" INDICATES FEW OR NO CLOUDS BELOW 12,000 FEET WITH NO
SIGNIFICANT WEATHER AND/OR OBSTRUCTIONS TO VISIBILITY.

ARZ001-003-010-029-281700-
NORTHWEST ARKANSAS

CITY           SKY/WX    TMP DP  RH WIND       PRES   REMARKS
FAYETTEVILLE   SUNNY     79  68  69 S13       30.01F
FORT SMITH     MOSUNNY   83  70  64 CALM      29.98F HX  87
HARRISON       MOSUNNY   78  64  61 S12       30.04F
BENTONVILLE    MOSUNNY   81  64  57 S8        30.03R
ROGERS         PTSUNNY   81  67  62 SW13G21   30.03R
SILOAM SPGS    PTSUNNY   81  64  57 S14G20    30.01S
HIGHFILL       PTSUNNY   81  67  62 S14       30.02R
SPRINGDALE     SUNNY     79  66  65 S17G23    30.03F
$$

ARZ004-005-016-281700-
NORTH CENTRAL ARKANSAS

CITY           SKY/WX    TMP DP  RH WIND       PRES   REMARKS
BATESVILLE     SUNNY     82  66  57 S8        30.04F HX  85
FLIPPIN        MOSUNNY   81  61  50 SW10G16   30.01S
MTN HOME       MOSUNNY   79  66  64 W6        30.04R
$$

ARZ040-041-281700-
WEST CENTRAL ARKANSAS

CITY           SKY/WX    TMP DP  RH WIND       PRES   REMARKS
MENA           MOSUNNY   82  70  65 SW3       30.03S HX  86
MOUNT IDA      SUNNY     82  63  52 VRB6      30.00F
$$

ARZ009-017-025-026-028-281700-
NORTHEAST ARKANSAS

CITY           SKY/WX    TMP DP  RH WIND       PRES   REMARKS
JONESBORO      SUNNY     83  68  60 S13       30.06R HX  86
WALNUT RIDGE   MOSUNNY   82  66  57 S14       30.05F HX  85
BLYTHEVILLE    SUNNY     82  66  58 S13       30.08S
$$

ARZ022-023-033-042-044-281700-
CENTRAL ARKANSAS

CITY           SKY/WX    TMP DP  RH WIND       PRES   REMARKS
LITTLE ROCK    MOSUNNY   83  67  58 S10       30.03F HX  85
N LITTLE ROCK    N/A     83  68  59 S6        30.02F HX  86
JACKSONVILLE   SUNNY     84  69  60 S8        30.02F HX  87
CONWAY           N/A     84  68  58 S9G16     30.00F HX  87
SEARCY         MOSUNNY   84  71  65 S9        30.05F HX  89
HOT SPRINGS    MOSUNNY   84  66  54 S8        30.02F HX  86
RUSSELLVILLE   SUNNY     82  67  60 SW6       30.01F
CLINTON        FAIR      82  66  57 S8G15     30.03S HX  85
$$

ARZ036-281700-
EAST ARKANSAS

CITY           SKY/WX    TMP DP  RH WIND       PRES   REMARKS
WEST MEMPHIS   SUNNY     82  68  62 S10       30.06R HX  85
$$

ARZ050-053-066-070-073-281700-
SOUTHWEST ARKANSAS

CITY           SKY/WX    TMP DP  RH WIND       PRES   REMARKS
ARKADELPHIA    FAIR      83  69  62 S8        30.02F HX  86
CAMDEN         SUNNY     84  66  54 S7        30.02F HX  86
TEXARKANA      MOSUNNY   81  68  64 S6        30.00F
EL DORADO      SUNNY     83  68  60 S8        30.02F HX  86
DE QUEEN       PTSUNNY   84  72  67 SE8       29.97F HX  89
$$

ARZ056-057-069-281700-
SOUTHEAST ARKANSAS

CITY           SKY/WX    TMP DP  RH WIND       PRES   REMARKS
PINE BLUFF     SUNNY     83  66  56 S7        30.04S HX  85
STUTTGART      SUNNY     84  61  45 S13       30.05F
MONTICELLO     SUNNY     83  68  60 S8        30.04S HX  86

$$






USA.gov is the U.S. government's official web portal to all federal, state and local government web resources and services.